Location: Allen Fire Department Station 4
(33.1073°N, 96.6988°W)
Time: 12:05:28
(UTC+00:00)

USA 215 - Pass Details

Date: 03 December 2021
Orbit: 1099 x 1109 km, 123.0° (Epoch: 14 January)

Event Time Altitude Azimuth Distance (km) Brightness Sun altitude
Rises 12:06:27 0° 120° (ESE) 3,909 7.9 -13.9°
Reaches altitude 10° 12:08:59 10° 115° (ESE) 2,952 7.0 -13.4°
Maximum altitude 12:15:15 52° 41° (NE) 1,338 3.9 -12.2°
Drops below altitude 10° 12:21:32 10° 327° (NNW) 2,956 5.1 -10.9°
Enters shadow 12:22:33 - 325° (NW) 3,337 5.3 -10.7°
